User: anonymous   Login
Location: Owatonna
(44.0840°N, 93.2260°W)
Time: 19:21:15
(UTC-06:00)
Language:

ALOS - Orbit

View from above orbital plane
View from above orbital plane
View from above satellite
View from above satellite

Ground track
Ground track

The orbit data is extracted from the following two-line orbital elements,

1 28931U 06002A   16039.53560784  .00000586  00000-0  12534-3 0  9995
2 28931  97.9031  84.0992 0002437  86.0839 274.0643 14.62113903535173
Epoch (UTC): 08 February 2016 12:51:16
Eccentricity: 0.0002437
inclination: 97.9031°
perigee height: 684 km
apogee height: 688 km
right ascension of ascending node: 84.0992°
argument of perigee: 86.0839°
revolutions per day: 14.62113903
mean anomaly at epoch: 274.0643°
orbit number at epoch: 53517

The dashed part of the orbit path shows where the satellite is in the earth's shadow,  

DLR